| time (UTC) | temp C | wind direction | speed KPH | gust KPH | rain 1hr cm | rain 24hr cm | rain mn cm | humidity % | barometer mb |
| 20260508080051 | 11 | 112 | 0.0 | 6.4 | 0.00 | 0.03 | 0.00 | 80 | 1010.3 |
| 20260508074511 | 11 | 155 | 0.0 | 4.8 | 0.00 | 0.05 | 0.00 | 82 | 1010.2 |
| 20260508073008 | 11 | 188 | 0.0 | 1.6 | 0.00 | 0.05 | 0.00 | 83 | 1010.0 |
| 20260508071547 | 11 | 38 | 0.0 | 1.6 | 0.00 | 0.05 | 0.00 | 83 | 1009.8 |
| 20260508070016 | 11 | 224 | 0.0 | 0.0 | 0.00 | 0.05 | 0.00 | 82 | 1009.7 |
| 20260508064557 | 11 | 58 | 0.0 | 6.4 | 0.00 | 0.05 | 0.00 | 84 | 1009.7 |
| 20260508063048 | 11 | 154 | 0.0 | 3.2 | 0.00 | 0.05 | 0.00 | 84 | 1009.7 |
| 20260508061503 | 10 | 231 | 0.0 | 1.6 | 0.00 | 0.05 | 0.00 | 84 | 1009.6 |
| 20260508060042 | 10 | 86 | 0.0 | 4.8 | 0.00 | 0.05 | 0.00 | 85 | 1009.6 |
| 20260508054514 | 10 | 102 | 0.0 | 3.2 | 0.00 | 0.05 | 0.00 | 86 | 1009.8 |
| 20260508053101 | 10 | 101 | 0.0 | 3.2 | 0.00 | 0.05 | 0.00 | 86 | 1009.8 |
| 20260508051530 | 10 | 123 | 0.0 | 1.6 | 0.00 | 0.05 | 0.00 | 86 | 1009.8 |
| 20260508050003 | 10 | 122 | 0.0 | 0.0 | 0.00 | 0.05 | 0.00 | 86 | 1009.9 |
| 20260508044548 | 10 | 123 | 0.0 | 0.0 | 0.00 | 0.05 | 0.00 | 87 | 1009.9 |
| 20260508043017 | 10 | 124 | 0.0 | 0.0 | 0.00 | 0.05 | 0.00 | 87 | 1009.8 |
| 20260508041558 | 10 | 124 | 0.0 | 1.6 | 0.00 | 0.05 | 0.00 | 87 | 1009.8 |
| 20260508040025 | 10 | 122 | 0.0 | 1.6 | 0.00 | 0.05 | 0.00 | 87 | 1009.7 |
| 20260508034612 | 10 | 115 | 0.0 | 4.8 | 0.00 | 0.05 | 0.05 | 87 | 1009.6 |
| 20260508033048 | 10 | 129 | 0.0 | 1.6 | 0.00 | 0.05 | 0.05 | 86 | 1009.6 |
| 20260508031508 | 10 | 40 | 0.0 | 1.6 | 0.00 | 0.05 | 0.05 | 86 | 1009.8 |
| 20260508030053 | 10 | 96 | 0.0 | 0.0 | 0.00 | 0.05 | 0.05 | 85 | 1009.7 |
| 20260508024524 | 10 | 116 | 0.0 | 3.2 | 0.00 | 0.05 | 0.05 | 85 | 1009.8 |
| 20260508023103 | 10 | 117 | 0.0 | 3.2 | 0.00 | 0.05 | 0.05 | 84 | 1009.7 |
| 20260508021538 | 11 | 155 | 0.0 | 3.2 | 0.00 | 0.05 | 0.05 | 85 | 1009.9 |
| 20260508020001 | 11 | 141 | 0.0 | 1.6 | 0.00 | 0.05 | 0.05 | 86 | 1009.7 |
| 20260508014545 | 11 | 190 | 0.0 | 1.6 | 0.00 | 0.05 | 0.05 | 85 | 1009.6 |
| 20260508013013 | 11 | 99 | 0.0 | 1.6 | 0.00 | 0.05 | 0.05 | 82 | 1009.6 |
| 20260508011556 | 11 | 154 | 0.0 | 3.2 | 0.00 | 0.05 | 0.05 | 81 | 1009.3 |
| 20260508010046 | 11 | 109 | 0.0 | 4.8 | 0.00 | 0.05 | 0.05 | 80 | 1009.0 |
| 20260508004612 | 11 | 163 | 0.0 | 1.6 | 0.00 | 0.05 | 0.05 | 80 | 1009.0 |
| 20260508003044 | 11 | 92 | 1.6 | 8.0 | 0.00 | 0.05 | 0.05 | 81 | 1008.9 |
| 20260508001515 | 12 | 154 | 0.0 | 4.8 | 0.00 | 0.05 | 0.05 | 80 | 1008.6 |
| 20260508000056 | 12 | 125 | 0.0 | 4.8 | 0.00 | 0.05 | 0.05 | 78 | 1008.5 |
| 20260507234524 | 12 | 111 | 0.0 | 4.8 | 0.00 | 0.05 | 0.05 | 77 | 1008.7 |
| 20260507233105 | 12 | 158 | 0.0 | 9.7 | 0.00 | 0.05 | 0.05 | 77 | 1008.5 |
| 20260507231541 | 12 | 87 | 1.6 | 14.5 | 0.00 | 0.05 | 0.05 | 75 | 1008.4 |
| 20260507230026 | 13 | 130 | 1.6 | 8.0 | 0.00 | 0.05 | 0.05 | 74 | 1008.4 |
| 20260507224554 | 13 | 120 | 0.0 | 4.8 | 0.00 | 0.05 | 0.05 | 70 | 1007.9 |
| 20260507223040 | 13 | 158 | 0.0 | 6.4 | 0.00 | 0.05 | 0.05 | 71 | 1008.2 |
| 20260507221603 | 13 | 246 | 1.6 | 8.0 | 0.00 | 0.05 | 0.05 | 71 | 1008.1 |
| 20260507220033 | 13 | 140 | 1.6 | 9.7 | 0.00 | 0.05 | 0.05 | 72 | 1008.4 |
| 20260507214510 | 13 | 124 | 1.6 | 9.7 | 0.00 | 0.05 | 0.05 | 74 | 1008.6 |
| 20260507213111 | 13 | 83 | 0.0 | 8.0 | 0.00 | 0.05 | 0.05 | 78 | 1008.5 |
| 20260507211523 | 13 | 113 | 1.6 | 9.7 | 0.00 | 0.05 | 0.05 | 80 | 1008.1 |
| 20260507210105 | 13 | 114 | 1.6 | 8.0 | 0.00 | 0.05 | 0.05 | 78 | 1008.2 |
| 20260507204533 | 13 | 214 | 1.6 | 9.7 | 0.00 | 0.05 | 0.05 | 77 | 1008.2 |
| 20260507203005 | 13 | 118 | 0.0 | 8.0 | 0.00 | 0.05 | 0.05 | 77 | 1008.1 |
| 20260507201559 | 13 | 160 | 1.6 | 6.4 | 0.03 | 0.05 | 0.05 | 75 | 1007.9 |
| 20260507200029 | 13 | 162 | 3.2 | 9.7 | 0.03 | 0.05 | 0.05 | 75 | 1008.4 |
| 20260507194602 | 13 | 143 | 0.0 | 6.4 | 0.03 | 0.05 | 0.05 | 79 | 1008.2 |
| 20260507193042 | 13 | 168 | 0.0 | 4.8 | 0.03 | 0.05 | 0.05 | 76 | 1008.4 |
| 20260507191503 | 13 | 134 | 1.6 | 8.0 | 0.00 | 0.03 | 0.03 | 74 | 1008.4 |
| 20260507190050 | 13 | 307 | 0.0 | 4.8 | 0.00 | 0.03 | 0.03 | 73 | 1009.0 |
| 20260507184515 | 13 | 214 | 0.0 | 4.8 | 0.00 | 0.03 | 0.03 | 74 | 1009.0 |
| 20260507183057 | 14 | 216 | 1.6 | 6.4 | 0.00 | 0.03 | 0.03 | 71 | 1008.9 |
| 20260507181532 | 14 | 82 | 1.6 | 8.0 | 0.00 | 0.03 | 0.03 | 68 | 1008.8 |
| 20260507180108 | 15 | 199 | 3.2 | 9.7 | 0.00 | 0.03 | 0.03 | 66 | 1009.3 |
| 20260507174551 | 15 | 203 | 1.6 | 8.0 | 0.00 | 0.03 | 0.03 | 67 | 1009.3 |
| 20260507173015 | 15 | 79 | 0.0 | 8.0 | 0.00 | 0.03 | 0.03 | 67 | 1009.7 |
| 20260507171601 | 15 | 155 | 0.0 | 6.4 | 0.00 | 0.03 | 0.03 | 65 | 1009.7 |
| 20260507170022 | 15 | 82 | 0.0 | 4.8 | 0.00 | 0.03 | 0.03 | 67 | 1009.7 |
| 20260507164606 | 15 | 281 | 0.0 | 3.2 | 0.00 | 0.03 | 0.03 | 68 | 1010.1 |
| 20260507163042 | 14 | 217 | 0.0 | 1.6 | 0.00 | 0.03 | 0.03 | 67 | 1010.4 |
| 20260507161513 | 13 | 24 | 0.0 | 4.8 | 0.00 | 0.03 | 0.03 | 66 | 1010.5 |
| 20260507160053 | 14 | 248 | 0.0 | 3.2 | 0.00 | 0.03 | 0.03 | 65 | 1010.5 |
| 20260507154520 | 14 | 108 | 1.6 | 6.4 | 0.00 | 0.03 | 0.03 | 64 | 1010.7 |
| 20260507153115 | 13 | 56 | 1.6 | 8.0 | 0.00 | 0.03 | 0.03 | 65 | 1011.0 |
| 20260507151531 | 14 | 244 | 0.0 | 4.8 | 0.00 | 0.03 | 0.03 | 64 | 1011.2 |
| 20260507150002 | 13 | 191 | 0.0 | 8.0 | 0.00 | 0.03 | 0.03 | 66 | 1011.0 |
| 20260507144544 | 13 | 68 | 3.2 | 11.3 | 0.00 | 0.03 | 0.03 | 66 | 1011.0 |
| 20260507143018 | 13 | 226 | 3.2 | 11.3 | 0.00 | 0.03 | 0.03 | 66 | 1011.0 |
| 20260507141557 | 13 | 75 | 3.2 | 17.7 | 0.00 | 0.03 | 0.03 | 68 | 1011.1 |
| 20260507140030 | 13 | 351 | 1.6 | 11.3 | 0.00 | 0.03 | 0.03 | 69 | 1011.2 |
| 20260507134621 | 13 | 237 | 3.2 | 8.0 | 0.00 | 0.03 | 0.03 | 72 | 1011.3 |
| 20260507133040 | 12 | 323 | 3.2 | 9.7 | 0.00 | 0.03 | 0.03 | 74 | 1011.2 |
| 20260507131524 | 12 | 150 | 0.0 | 4.8 | 0.00 | 0.03 | 0.03 | 76 | 1011.2 |
| 20260507130110 | 12 | 39 | 0.0 | 8.0 | 0.00 | 0.03 | 0.03 | 78 | 1011.4 |
| 20260507124525 | 12 | 314 | 0.0 | 4.8 | 0.00 | 0.03 | 0.03 | 79 | 1011.1 |
| 20260507123110 | 11 | 45 | 0.0 | 9.7 | 0.00 | 0.03 | 0.03 | 79 | 1011.1 |
| 20260507121531 | 11 | 56 | 1.6 | 8.0 | 0.00 | 0.03 | 0.03 | 80 | 1011.0 |
| 20260507120006 | 11 | 51 | 1.6 | 9.7 | 0.00 | 0.03 | 0.03 | 80 | 1011.0 |
| 20260507114545 | 11 | 38 | 0.0 | 6.4 | 0.00 | 0.03 | 0.03 | 80 | 1010.8 |
| 20260507113018 | 11 | 78 | 0.0 | 11.3 | 0.00 | 0.03 | 0.03 | 80 | 1010.7 |
| 20260507111556 | 11 | 77 | 0.0 | 8.0 | 0.00 | 0.03 | 0.03 | 81 | 1010.8 |
| 20260507110028 | 11 | 34 | 1.6 | 6.4 | 0.00 | 0.03 | 0.03 | 81 | 1010.9 |
| 20260507104502 | 11 | 3 | 1.6 | 11.3 | 0.00 | 0.03 | 0.03 | 82 | 1010.7 |
| 20260507103042 | 11 | 342 | 0.0 | 3.2 | 0.00 | 0.03 | 0.03 | 84 | 1010.3 |
| 20260507101513 | 11 | 58 | 1.6 | 14.5 | 0.00 | 0.03 | 0.03 | 81 | 1010.1 |
| 20260507094521 | 11 | 25 | 3.2 | 11.3 | 0.00 | 0.03 | 0.03 | 81 | 1009.7 |
| 20260507093103 | 11 | 44 | 4.8 | 12.9 | 0.00 | 0.03 | 0.03 | 82 | 1009.3 |
| 20260507091535 | 11 | 36 | 4.8 | 17.7 | 0.00 | 0.03 | 0.03 | 82 | 1009.5 |
| 20260507090007 | 12 | 253 | 3.2 | 14.5 | 0.00 | 0.03 | 0.03 | 85 | 1009.4 |
| 20260507084550 | 12 | 52 | 4.8 | 17.7 | 0.00 | 0.03 | 0.03 | 86 | 1009.1 |
| 20260507083019 | 12 | 309 | 4.8 | 16.1 | 0.00 | 0.03 | 0.03 | 86 | 1009.0 |
| 20260507081604 | 12 | 51 | 6.4 | 19.3 | 0.03 | 0.03 | 0.03 | 85 | 1008.8 |